Terug naar catalogus

SL-8 R/B

ActiefLEO
NORAD 11574·ROCKET BODY·🇷🇺 Russia

Gelanceerd Oct 11, 1979 vanaf Plesetsk Cosmodrome

Loading…

Volgende Passages (komende 24 uur)

TLE

VersSource: Space-Track

Epoch: Sep 13, 2026, 23:32 UTC

1 11574U 79089B   26256.98062283  .00000139  00000-0  49860-4 0  9994
2 11574  74.0670 102.4835 0016504 228.6523 131.3215 14.42436264463253

Volg SL-8 R/B in realtime met AllMySat

Download on the App Store